Dauntless Aviation
Greetings, Guest! To participate, [sign up for a free account] or [log in]
Airports North America Canada
CYLW
YLW

Kelowna International Airport

Kelowna, BC, CANADA

Airport Info
Edit

Location

Latitude / Longitude: 49°53'0"N / 119°29'35"W
  49°53.016'N / 119°29.598'W
  49.8836 / -119.4933

Nearby radio navigation aids

EX RUTLAND NDB. 335.5° 1.0nm from EX to field.
LW KELOWNA NDB. 147.1° 6.5nm from LW to field.

Runway Information

Runway 16 /34

Dimensions: 7300 x 200 ft.
Surface: ASP
 
Runway 16
Runway 34
Latitude: 49.966 49.946278
Longitude: -119.378961 -119.376461
Elevation: 1409 ft. 1409 ft.
Runway true heading: 166.6 346.6
 

Instrument Procedures

  Aerodrome Chart
  Parking Areas
  CAC: Aerodrome Chart
  CAC: Parking Areas - Apron I
  CAC: Parking Areas - Apron III

IAPs (Instrument Approach Procedures)

  CFS: KELOWNA VFR Terminal Procedures Chart
  CFS: KELOWNA VFR Terminal Procedures Chart - Night Circuit Procedure
  CFS: Aerodrome Information
  CFS: Aerodrome Information (Part 2)
  DATBO ONE ARR (DATBO.DATBO 1)
  LENUR ONE ARR (LENUR.LENUR 1)
  RNAV (GNSS) A
  NDB B (GNSS)
  ILS/DME 1 Rwy 16
  Night Circuit Procedures
  KELOWNA FIVE DEP (YLW 5.)

Departure Procedures

  Departure Procedure
Satellite photo at:
Airport distance calculator
From:
Weather Reports

METAR

CYLW

CYLW 031700Z AUTO 15003KT 080V200 9SM CLR 14/04 A2995 RMK SLP145 DENSITY ALT 1500FT
CWUS
20.0nm S
CWUS 031700Z AUTO 09004KT 15/04 RMK AO1 SLP140 T01470035 50003
CWJV
21.6nm N
CWJV 031700Z AUTO 10005KT 12/07 RMK AO1 0004 SLP146 T01200067 50013
CYYF
25.3nm S
CYYF 031700Z 02004KT 300V060 15SM SCT110 15/04 A2994 RMK AC3 SLP142 DENSITY ALT 1400FT

TAF

CYLW
TAF AMD CYLW 031317Z 0313/0401 VRB03KT P6SM FEW060 BKN100 TEMPO 0313/0401 P6SM -SHRA BKN060 BKN100 PROB30 0320/0401 VRB15G25KT 5SM TSRA BKN030CB RMK FCST BASED ON AUTO OBS. NXT FCST BY 031900Z
CYYF
25.3nm S
TAF CYYF 031243Z 0313/0401 VRB03KT P6SM SCT050 BKN100 PROB30 0320/0401 VRB15G25KT 5SM TSRA BKN040CB RMK NXT FCST BY 031900Z
Safelog

 

Dauntless Aviation

© 2007-2015 Dauntless Aviation, all rights reserved
Information provided via PilotNav comes from a variety of official and unofficial data sources. As errors are possible, do not use PilotNav for primary flight planning purposes. Verify any information that you receive via PilotNav with current and canonical charts and other official documents. The material in this database is subject to database copyrights held by Dauntless Aviation and may not be copied without the express permission of Dauntless Aviation - licenses for use of part of all of this data are available for purchase; enquire via the Dauntless Aviation helpdesk. A number of mechanisms and markers exist in the database to protect against and identify infringement / copyright. Automated queries against this website are stictly prohibited, and all activity is logged and analyzed.